Location: Roanoke
(37.2710°N, 79.9420°W)
Time: 20:12:17
(UTC-04:00)

Daily predictions for brighter satellites

Satellite Brightness Start Highest point End
(mag) Time Altitude Azimuth Time Altitude Azimuth Time Altitude Azimuth
ATLAS CENTAUR R/B 3.4 19:26:36 10° S 19:30:40 48° ESE 19:42:03 10° NE
Meteor 1-22 Rocket 4.4 19:28:26 10° SSE 19:33:30 43° E 19:38:30 10° NNE
Cosmos 2219 Rocket 3.5 19:30:24 10° SW 19:35:46 46° WNW 19:41:11 10° N
Cosmos 2233 Rocket 4.1 19:30:49 10° S 19:37:06 85° E 19:43:28 10° N
Cosmos 921 Rocket 3.2 19:33:09 10° NNW 19:37:21 74° WSW 19:41:30 10° S
Tiangong 2 3.6 19:35:14 10° W 19:37:34 19° SW 19:39:53 10° SSE
USA 215 3.3 19:33:23 10° NE 19:39:55 71° SE 19:46:25 10° SW
Cosmos 1441 Rocket 3.1 19:36:48 10° N 19:40:33 82° E 19:44:17 10° S
Cosmos 2278 Rocket 2.2 19:35:46 10° NNW 19:41:28 85° ENE 19:47:07 10° SSE
Meteor 2-5 Rocket 3.8 19:36:59 10° N 19:42:39 88° W 19:48:11 10° S
Meteor 1-29 4.2 19:41:50 10° NE 19:44:37 22° E 19:47:22 10° SSE
Cosmos 2297 4.1 19:39:38 10° N 19:45:02 44° ENE 19:50:23 10° SE
Meteor 1-24 Rocket 3.8 19:41:40 10° N 19:47:14 56° ENE 19:52:35 10° SSE
Meteor 1-28 Rocket 3.1 19:43:50 10° NNE 19:47:32 61° E 19:51:12 10° S
Cosmos 1378 3.7 19:45:12 10° NNE 19:48:40 35° E 19:52:06 10° SSE
SJ-6B 2.8 19:46:48 10° SSE 19:50:41 66° ENE 19:54:41 10° N
Cosmos 1707 2.9 19:47:30 10° N 19:51:22 79° W 19:55:12 10° S
Cosmos 1076 Rocket 4.3 19:48:56 10° NNE 19:52:47 31° ENE 19:56:38 10° SE
Cosmos-2242 4.1 19:51:07 10° SE 19:54:31 23° E 19:57:57 10° NE
Cosmos 1758 4.3 19:54:50 10° SSE 19:58:15 27° E 20:01:43 10° NNE
Cosmos 192 4.5 19:54:49 10° S 19:59:35 51° ESE 20:04:23 10° NNE
Helios 1B rocket 2.6 19:57:21 10° NNE 20:01:20 49° E 20:05:19 10° S
SeaSat 1 3.5 20:00:44 10° NE 20:04:38 23° ESE 20:08:31 10° SSE
Cosmos 1408 Rocket 4.0 20:01:57 10° N 20:06:02 38° E 20:10:03 10° SSE
Resurs 01 Rocket 1.7 20:03:41 10° SSE 20:08:02 56° ENE 20:12:24 10° N
NOSS 3-2 (A) 3.4 20:04:07 10° SSW 20:10:08 85° ESE 20:16:40 10° NNE
Cosmos 2333 Rocket 4.1 20:05:54 10° WSW 20:11:00 32° WNW 20:16:08 10° N
FengYun 1-2 T 4.4 20:05:53 10° SE 20:11:10 50° ENE 20:16:28 10° N
Resurs 1-3 3.8 20:07:54 10° SSE 20:12:06 47° ENE 20:16:20 10° N
Okean 3 Rocket 3.9 20:07:59 10° N 20:12:32 73° W 20:17:03 10° S
CZ-4B DEB 3.8 20:15:35 26° E 20:16:16 28° ENE 20:19:07 10° NNE
Spot 1 4.3 20:13:23 10° SSE 20:18:16 90° ENE 20:22:52 10° NNW
Atlas Centaur 2 3.7 20:15:22 10° W 20:23:24 46° SSW 20:28:58 18° SE
ATLAS CENTAUR R/B 1.9 20:20:55 10° NW 20:25:00 56° WSW 20:28:44 10° SSE
Meteor 1-21 Rocket 4.4 20:21:31 10° N 20:26:52 46° ENE 20:31:13 15° SSE
GPS 2-04 Rocket1 4.2 20:25:24 10° SSW 20:27:40 18° SSE 20:27:40 18° SSE
ALOS 2.4 20:26:02 14° SSE 20:29:50 52° ENE 20:34:22 10° N
Cosmos 1269 Rocket 4.4 20:27:18 10° SSE 20:32:10 39° ESE 20:37:03 10° NE
Cosmos 1743 Rocket 4.1 20:28:41 10° N 20:32:46 35° ENE 20:33:30 33° E
In-Cosmos 22 4.2 20:27:35 10° N 20:33:23 74° E 20:39:07 10° SSE
Cosmos 1674 4.4 20:30:39 10° NNE 20:32:22 19° NE 20:32:22 19° NE
Nadezhda 4 Rocket 4.2 20:27:58 10° N 20:34:01 48° E 20:38:48 16° SSE
Spot 2 Rocket 3.8 20:32:43 10° S 20:37:44 69° WSW 20:42:46 10° NNW
ASTRO E2 3.6 20:34:26 10° WSW 20:38:08 35° S 20:38:55 32° SSE
Cosmos 1092 Rocket 4.4 20:33:12 10° N 20:38:55 37° ENE 20:40:56 30° ESE
Cosmos 1048 Rocket 4.4 20:34:12 10° SSE 20:39:04 38° ESE 20:43:56 10° NE
NOSS 3-3 (A) 4.4 20:35:45 10° NNW 20:43:18 77° ENE 20:48:48 22° SE
NOSS 3-3 (C) 4.4 20:35:51 10° NNW 20:43:24 77° ENE 20:48:51 23° SE
OAO 3 Rocket 3.2 20:39:57 10° WSW 20:44:41 65° S 20:46:04 44° ESE
Helios 1A 3.6 20:41:48 10° S 20:45:53 56° W 20:50:01 10° NNW
NOSS 3-2 (C) 3.8 20:41:09 10° SW 20:47:09 67° NW 20:53:42 10° NNE
CENTAUR R/B 3.3 20:45:19 10° S 20:48:51 28° SE 20:48:51 28° SE
Cosmos 1634 Rocket 4.4 20:49:15 34° ESE 20:50:49 39° E 20:56:32 10° NNE
ATLAS 5 CENTAUR R/B 2.1 20:46:39 10° SW 20:51:20 68° NW 20:56:27 10° NNE
CZ-2D R/B 3.1 20:52:08 60° SE 20:52:44 77° ENE 20:56:39 10° N
ASTEX 1 3.2 20:48:15 10° N 20:53:11 74° E 20:58:03 10° S
Cosmos 1953 2.9 20:49:48 10° SSW 20:53:43 58° W 20:57:40 10° N
SL-16 R/B 3.8 20:52:45 10° SW 20:57:56 35° WNW 21:03:09 10° N
H-2A R/B 3.2 21:12:11 57° SW 21:12:30 60° W 21:16:22 10° NNW
SL-8 R/B 4.0 21:15:21 10° SW 21:19:07 55° SW 21:19:07 55° SW
ERS-1 Rocket 3.9 21:34:40 39° N 21:34:40 39° N 21:37:51 10° N
SeaSat 1 3.6 21:37:37 10° N 21:42:14 41° WNW 21:46:50 10° SW
Cosmos 2369 Rocket 3.0 21:39:47 10° NNW 21:43:35 41° N 21:43:35 41° N
Cosmos 839 Rocket 4.4 21:42:35 10° NNW 21:49:20 59° NNE 21:49:20 59° NNE
Cosmos 1943 Rocket 4.0 21:51:51 10° N 21:53:53 20° NNE 21:53:53 20° NNE
Atlas Centaur 2 4.3 22:06:08 10° WSW 22:11:38 23° SW 22:11:38 23° SW
